SCP
0 0 0 -0 0 0 0 0 0 -0 -0 -0 -0 -0 -0 -0 0 0 0 -0 -0 -0 -0 -0 -0 -0 -0 -0 -0 -0 -0 -0 -0 -0 -0 -0 -0 -0 -0 -0 -0 -0 -0 -0 -0 -0 0 0 -0
0 -0 0 0 -0 0 -0 -0 -0 0 -0 -0 -0 -0 -0 0 0 -0 -0 -0 -0 -0 0 0 -0 -0 -0 -0 -0 -0 -0 -0 -0 -0 -0 -0 -0 -0 -0 -0 -0 -0 -0 -0 -0 -0 0 0 0
-0 -0 -0 -0 0 0 0 0 -0 -0 -0 -0 -0 -0 -0 -0 -0 -0 -0 -0 -0 -0 -0 0 -0 -0 -0 -0 -0 -0 -0 -0 -0 -0 -0 -0 -0 -0 -0 -0 -0 -0 -0 -0 -0 0 0 0 0
-0 0 -0 0 0 -0 -0 -0 -0 -0 -0 -0 -0 -0 -0 -0 0 -0 -0 -0 -0 -0 -0 0 -0 -0 -0 -0 -0 -0 -0 -0 -0 -0 -0 -0 -0 -0 -0 -0 -0 -0 -0 0 0 0 0 0 0
-0 -0 0 0 -0 -0 0 0 -0 -0 0 -0 -0 -0 -0 -0 -0 -0 -0 -0 -1 -0 -0 0 -0 -0 -0 -0 -0 -0 -0 -0 -0 -0 -0 -0 -0 -0 -0 -0 -0 -0 0 0 0 0 0 0 0
0 -0 -0 0 0 0 -0 -0 0 0 0 -0 -0 -0 0 -0 -0 -0 -0 -0 -0 -0 -0 -0 -0 -0 0 0 -0 -0 -0 -0 -0 -0 -0 -0 -0 -0 -0 -0 -0 0 0 0 0 0 0 0 0
-0 0 0 0 -0 0 -0 0 -0 0 0 -0 -0 -0 0 -0 -0 -0 -0 0 -0 -0 -0 -0 -0 -0 -0 -0 -0 -0 -0 -0 -0 -0 -0 -0 -0 -0 -0 -0 -0 0 0 0 0 0 0 0 0
-0 -0 -0 0 0 -0 0 0 -0 0 -0 0 -0 -0 -0 -0 -0 -0 0 -0 -0 -0 -0 -0 -0 -0 0 0 -0 -0 -0 -0 -0 0 -0 0 0 -0 0 0 0 0 0 0 0 0 0 0 0
-0 -0 0 -0 -0 0 0 0 -0 0 -0 -0 -0 -0 -0 -0 -0 -0 -0 -0 -0 -0 -0 -0 -0 0 0 0 -0 -0 0 0 -0 0 0 -0 0 -0 0 0 0 -0 0 0 0 0 0 0 0
0 -0 0 -0 0 0 0 0 0 -0 0 -0 -0 -0 -0 -0 -0 -0 -0 -0 -0 0 0 -0 -0 -0 0 0 -0 0 -0 -0 -0 -0 0 0 0 0 0 0 0 -0 0 0 0 0 -0 0 -0
0 -0 0 0 0 -0 0 -0 -0 -0 0 0 -0 -0 -0 -0 -0 -0 -0 -0 -0 -0 0 -0 -0 -0 -0 0 0 0 -0 -0 -0 -0 0 0 0 0 0 0 0 0 0 0 0 0 0 -0 0
0 0 -0 0 0 -0 0 0 -0 0 0 0 -0 -0 -0 0 -0 -0 -0 -0 -0 -0 -0 -0 -0 0 0 0 0 0 0 -0 -0 -0 0 0 0 0 0 0 0 0 0 0 0 -0 -0 -0 0
-0 0 -0 -0 0 -0 0 0 0 0 0 0 0 -0 -0 -0 -0 -0 -0 -0 -0 -0 -0 -0 -0 0 -0 -0 0 -0 -0 -0 0 0 0 0 0 0 0 0 0 0 0 0 0 0 -0 -0 0
0 -0 0 0 0 0 -0 0 0 0 -0 -0 -0 -0 -0 -0 -0 -0 -0 -0 -0 -0 -0 -0 -0 -0 -0 -0 -0 0 0 0 0 -0 0 0 0 0 0 0 0 0 0 0 0 -0 0 0 -0
0 0 0 0 0 0 0 -0 0 -0 0 -0 -0 0 -0 -0 -0 -0 -0 -0 -0 -0 -0 -0 -0 -0 -0 -0 -0 -0 0 0 0 0 0 0 0 0 0 0 0 0 -0 -0 -0 -0 0 0 0
-0 -0 0 -0 0 -0 0 0 0 -0 0 0 0 0 -0 -0 -0 -0 -0 -0 -0 -0 -0 -0 -0 -0 -0 -0 -0 -0 -0 0 -0 -0 0 0 0 0 0 0 0 0 0 0 0 -0 0 -0 0
0 0 0 -0 0 0 0 0 0 0 0 0 -0 -0 -0 -0 -0 -0 -0 -0 -0 -0 -0 -0 -0 -0 -0 0 0 -0 -0 -0 -0 -0 -0 0 0 0 0 0 0 0 0 0 0 0 -0 0 -0
0 0 0 0 0 0 0 0 -0 -0 -0 0 -0 0 0 -0 -0 -0 -0 -0 -0 -0 -0 -0 -0 -0 -0 0 0 0 0 0 -0 -0 -0 0 0 0 0 0 0 0 -0 -0 -0 0 0 -0 -0
-0 0 0 0 0 0 0 0 0 -1 0 0 -0 -0 -0 0 -0 0 -0 -0 -0 -0 -0 -0 -0 -0 -0 -0 -0 0 0 -0 -0 -0 -0 0 -0 0 0 1 0 0 0 -0 0 -0 -0 0 0
-0 0 0 0 0 0 0 0 -0 0 0 0 -0 -0 -0 0 -0 -0 -0 -0 -0 -0 -0 -0 -0 -0 -0 -0 -0 0 -0 0 0 -0 -0 -0 0 0 0 0 0 0 0 0 0 -0 -0 -0 0
0 -0 0 0 0 0 0 0 0 0 0 0 -0 0 -0 -0 -0 -0 -0 -0 -0 -0 -0 -0 -0 -0 -0 -0 -0 -0 -0 0 0 -0 0 -0 0 0 0 0 0 0 1 0 0 0 -0 -0 -0
0 0 0 -0 0 0 0 0 -0 0 0 0 -0 -0 -0 -0 -0 -0 -0 -0 -0 -0 -0 -0 -0 -0 -0 -0 -0 -0 -0 -0 0 0 -0 -0 -0 -0 0 0 0 0 0 0 0 0 0 0 -0
-0 0 0 -0 0 0 -0 0 0 0 0 0 0 -0 -0 -1 -0 -0 -0 -0 -0 -1 -0 -0 -0 -0 -0 -0 -0 -0 -0 0 0 -0 0 -0 -0 -0 -0 0 0 0 0 0 0 0 0 0 0
0 0 -0 -0 0 0 -0 0 0 0 0 0 0 -0 -0 -1 -1 -0 -0 -0 -0 -1 -1 -0 -0 -0 0 0 0 -0 0 -0 -0 -0 -0 -0 -0 -0 -0 0 0 0 0 0 0 0 0 0 0
0 0 0 0 0 0 0 -0 0 -0 0 0 0 -0 0 -1 -1 -0 -0 -0 -0 -1 -1 -0 -0 -0 -0 0 -0 0 0 -0 -0 0 -0 -0 0 -0 0 0 0 0 0 0 0 0 0 0 0
0 0 0 0 -0 0 0 0 0 -0 0 0 0 0 0 -0 -0 -1 -0 -0 -0 -2 -1 -1 -0 -0 -0 -0 0 0 -0 -0 -0 -0 0 0 0 0 -0 0 0 0 0 0 0 0 0 0 0
0 0 0 0 -0 0 0 0 0 0 0 0 0 0 0 0 0 -0 -0 -0 -0 -2 -2 -1 -0 -0 -0 -0 0 0 -0 -0 0 0 0 0 0 0 0 0 0 0 0 0 0 0 0 0 0
0 0 0 0 0 0 -0 0 0 0 0 0 0 0 0 0 0 -0 -0 -0 -0 -2 -2 -2 -1 -1 -0 -0 -0 0 0 -0 -0 0 0 0 0 0 0 0 0 0 0 0 0 0 0 0 0
0 0 0 0 0 0 0 0 0 0 0 0 0 0 0 -0 0 -0 -0 -0 -1 -2 -3 -2 -1 -1 -0 -0 -0 -0 0 0 0 -0 0 0 0 0 0 0 0 0 0 0 0 0 -0 0 -0
0 0 0 0 0 0 0 0 0 0 0 0 0 0 0 0 0 0 -0 -0 -1 -2 -2 -2 -1 -0 -0 -0 0 -0 0 0 0 -0 -0 0 0 0 0 0 0 0 -0 0 0 0 0 0 0
Wind_Speed_500mb
4 10 11 9 10 5 15 10 20 27 32 58 53 40 23 34 10 8 46 41 35 43 40 35 38 33 31 33 30 30 30 29 28 26 25 24 24 24 23 22 22 23 28 28 29 29 27 25 30
12 16 14 3 8 9 9 19 28 20 41 54 54 49 29 11 14 47 53 39 37 42 42 40 37 34 32 29 27 28 28 28 28 27 26 27 27 27 25 23 26 28 29 31 33 32 29 29 34
11 6 5 7 7 8 8 20 34 23 37 38 36 36 14 13 38 59 49 40 39 44 43 39 36 34 32 30 29 28 27 27 25 23 23 25 27 24 26 25 26 30 33 29 28 26 25 27 34
13 8 10 5 1 7 3 34 30 24 38 45 44 23 22 28 60 62 53 45 43 39 40 39 35 33 32 31 29 27 25 24 23 23 21 22 23 25 25 25 29 29 25 25 24 23 24 26 33
6 9 5 7 12 15 22 36 46 12 12 50 45 21 22 34 57 72 54 47 50 43 38 39 36 32 30 30 29 28 25 24 22 21 21 20 22 22 25 27 27 25 23 22 20 22 21 24 30
7 3 6 9 6 10 19 49 18 12 26 59 50 38 17 46 44 52 54 56 43 45 38 36 33 28 24 23 18 24 24 22 22 21 20 20 22 25 21 25 24 22 22 22 20 21 23 28 26
1 6 9 14 6 3 11 16 29 14 23 27 38 14 27 43 48 47 37 43 34 36 34 33 31 25 23 26 24 25 22 22 26 25 22 22 24 23 21 23 24 20 22 20 19 23 25 25 21
17 10 18 11 6 5 6 14 30 2 5 11 28 16 21 55 56 46 42 48 36 29 22 28 25 24 23 24 24 23 25 20 32 28 26 23 22 20 21 23 21 19 20 19 21 26 28 23 17
13 11 8 8 7 4 8 2 12 18 25 54 26 50 72 52 51 54 52 56 47 38 20 17 19 20 22 24 24 26 24 28 40 34 26 26 22 15 17 21 22 16 17 20 21 18 14 13 16
11 8 11 24 8 4 7 4 2 16 25 50 60 54 56 53 54 49 45 54 44 35 29 19 16 18 19 25 26 26 25 33 38 32 27 32 24 19 13 14 17 15 17 17 14 12 18 8 16
10 9 13 8 15 27 15 24 14 25 7 31 55 64 51 53 45 39 44 42 44 32 38 31 21 20 17 24 24 26 29 41 37 36 25 24 22 18 6 7 16 13 14 6 4 14 6 13 18
12 24 38 7 6 22 6 9 21 8 10 17 68 66 58 57 52 47 47 35 34 34 44 38 34 28 22 16 27 29 37 38 32 37 26 23 20 17 11 10 10 13 8 12 18 10 5 17 35
16 20 40 20 10 26 16 10 22 13 12 34 42 66 64 60 57 53 43 41 40 46 44 29 29 36 32 18 31 29 30 32 28 30 26 22 17 20 15 10 11 7 9 8 8 18 26 12 32
11 26 14 8 3 25 24 18 22 21 23 20 28 66 68 63 56 48 46 37 52 50 45 41 38 42 35 33 33 30 27 25 32 33 30 21 19 7 10 15 10 2 6 17 10 19 13 17 15
12 8 7 5 17 7 13 12 12 27 30 32 45 39 76 67 51 57 52 53 40 45 43 47 44 45 40 40 31 27 44 40 38 39 26 23 21 20 16 16 14 13 12 13 17 13 6 6 18
18 13 12 19 6 9 20 10 13 35 23 20 35 42 65 65 60 46 59 52 42 40 41 41 46 40 38 39 34 29 30 51 50 48 36 33 31 29 21 20 12 11 7 2 8 3 13 15 7
7 6 23 23 22 12 18 9 20 42 30 29 33 27 43 64 60 46 54 58 49 42 35 33 35 30 35 38 47 36 30 36 49 47 39 46 34 35 31 12 10 7 1 10 4 11 7 13 6
11 7 15 13 15 23 18 8 27 51 48 41 40 24 40 50 58 47 56 58 53 44 38 29 30 26 30 36 50 46 44 39 39 44 39 48 34 41 32 8 9 5 4 10 18 13 10 10 23
29 20 9 5 21 16 12 8 32 45 35 25 53 46 42 45 55 56 47 58 54 49 41 34 33 32 36 39 51 53 53 45 42 36 30 31 40 37 31 14 13 6 4 10 8 17 17 6 25
21 16 8 14 11 16 12 19 40 38 18 8 24 60 61 53 61 64 59 60 62 53 44 38 37 38 37 36 48 52 54 49 43 39 32 25 26 29 34 20 16 16 8 7 6 3 8 9 12
20 14 7 17 18 3 9 14 9 29 31 51 62 62 70 68 66 69 70 69 64 61 49 40 37 39 37 38 45 49 38 39 40 41 30 25 21 23 33 32 19 18 17 11 9 8 6 1 7
11 22 19 15 10 7 4 17 9 30 29 35 41 63 69 71 75 75 75 70 73 67 55 41 37 35 34 44 46 57 51 48 43 35 32 29 26 20 25 30 35 23 17 20 10 4 8 12 6
17 16 14 13 12 11 18 3 3 8 18 22 41 56 77 85 79 86 80 75 83 73 64 49 41 39 45 44 46 53 51 45 39 31 30 29 27 13 13 25 30 31 34 26 21 16 12 17 12
12 11 13 14 4 5 21 11 2 11 21 20 37 58 79 83 91 83 83 77 73 74 71 58 47 46 50 51 48 47 49 45 39 36 33 26 26 29 21 19 24 27 26 28 29 25 27 30 22
12 8 7 9 6 12 12 21 19 39 28 33 40 65 63 91 87 86 91 87 69 87 80 65 53 51 54 56 56 54 50 48 40 34 33 31 34 31 29 17 13 26 25 22 25 31 31 29 28
19 16 11 13 5 6 15 16 15 33 41 56 66 78 72 81 92 96 95 94 76 87 85 73 58 52 53 62 62 57 46 56 47 43 36 37 33 36 24 27 23 19 22 17 17 26 33 30 30
18 11 21 10 11 8 10 14 14 6 17 23 43 44 68 75 87 93 91 90 86 86 92 78 62 51 51 54 65 63 49 60 55 48 41 36 46 37 37 32 29 34 26 26 23 21 24 24 29
17 13 7 7 6 13 14 12 8 14 3 13 14 36 43 74 83 84 92 86 94 96 93 80 63 48 48 51 57 62 59 52 58 51 41 47 40 48 48 41 42 48 41 31 30 27 23 23 21
7 10 10 8 8 6 5 12 11 15 16 12 7 23 47 47 54 93 96 92 81 91 93 81 66 52 45 53 54 55 54 53 54 57 56 48 51 49 47 46 47 40 42 33 30 34 25 32 31
15 18 20 10 14 10 11 14 7 15 11 22 14 24 40 40 38 74 87 88 94 94 94 84 70 59 50 48 55 53 51 50 52 54 57 63 56 49 45 45 41 36 32 30 38 42 30 36 43
Wind_Direction_500mb
211 49 25 42 42 13 304 314 108 78 75 81 83 83 83 46 127 193 150 183 157 153 149 143 139 132 128 123 119 116 114 111 111 114 115 116 119 118 117 120 117 114 118 121 117 109 104 104 106
35 32 304 135 83 338 284 249 85 111 113 107 98 96 63 61 92 135 133 160 163 150 149 147 142 139 134 128 129 126 125 121 118 114 110 109 110 115 117 122 124 123 121 117 110 105 99 100 103
47 341 285 110 121 197 253 301 319 86 104 112 100 73 70 108 127 132 140 158 151 151 150 143 141 141 136 132 135 132 135 128 123 117 114 112 112 115 124 125 125 123 119 113 108 101 104 101 104
6 324 259 92 221 209 336 293 297 54 82 100 98 69 86 124 135 140 152 156 147 149 146 143 145 142 141 139 138 140 140 138 136 128 119 116 116 123 128 126 126 123 118 111 105 106 98 100 113
290 297 320 319 177 153 183 262 287 50 317 108 102 103 92 135 145 151 156 161 165 146 148 147 149 150 147 147 151 153 159 158 155 146 133 123 127 130 132 132 128 126 118 109 106 107 104 106 113
277 161 1 315 20 82 274 250 242 96 67 106 100 105 107 144 152 158 160 158 160 159 156 155 155 153 158 158 158 159 166 167 172 168 146 138 136 135 137 136 134 130 118 108 109 106 109 94 105
237 50 344 285 4 168 212 5 346 45 40 102 137 107 137 152 149 154 157 156 159 179 171 164 164 164 159 155 159 160 166 174 173 171 153 148 142 138 134 141 136 134 121 114 103 101 92 95 92
113 97 347 315 269 260 298 73 298 31 47 95 147 139 156 149 152 161 148 166 165 168 163 175 167 167 161 156 162 171 172 180 175 170 158 141 134 129 136 144 142 141 129 115 106 97 90 91 108
82 49 300 267 314 101 273 333 332 20 58 64 78 138 146 151 159 156 163 169 167 168 180 149 167 170 166 167 166 161 165 158 157 163 145 124 120 120 134 146 147 151 133 114 110 102 97 102 47
117 106 261 282 153 141 89 184 236 59 76 91 96 116 142 149 156 161 164 164 169 168 170 180 176 172 163 175 166 161 162 158 160 155 137 139 119 99 105 150 157 163 125 116 118 114 71 7 67
146 172 226 199 134 154 180 181 175 119 41 112 134 140 155 152 164 163 171 180 181 203 175 192 195 164 180 189 186 170 164 166 166 169 152 146 130 133 91 145 157 149 109 124 113 83 108 119 104
92 16 340 58 53 159 80 123 93 105 177 178 153 151 157 166 170 177 179 187 182 168 174 181 181 182 196 177 182 170 167 172 169 170 154 144 135 125 152 132 136 137 57 47 63 47 42 107 68
146 132 221 247 184 131 135 131 129 147 111 146 156 163 166 177 178 181 184 185 186 179 174 181 176 175 188 195 179 171 169 178 173 183 173 146 162 171 198 244 151 62 330 2 17 63 50 100 109
198 186 139 98 233 174 163 155 140 200 192 208 206 172 174 179 181 179 181 192 194 201 192 178 184 180 192 191 184 174 172 173 181 178 158 171 158 186 196 184 185 167 238 299 211 145 45 145 146
300 141 115 242 297 178 177 161 171 185 199 254 182 191 181 176 177 180 182 195 209 196 188 189 193 191 191 187 193 196 196 192 189 183 187 181 225 195 196 174 195 172 227 287 335 56 202 183 319
273 51 31 289 265 258 164 217 181 182 200 218 180 202 179 173 185 175 182 193 203 191 197 203 206 210 199 189 187 183 173 174 189 187 200 198 204 191 169 182 223 186 198 237 3 17 245 261 284
5 171 213 253 214 230 188 201 167 183 200 235 207 204 171 180 186 174 177 186 185 187 179 180 199 206 203 204 198 188 176 182 181 202 196 202 191 187 177 204 195 151 276 331 11 11 132 337 351
200 205 249 193 219 227 212 221 156 184 188 210 231 206 185 179 172 176 183 186 179 182 179 182 199 206 202 207 205 196 186 198 200 198 201 200 193 189 188 184 180 129 330 17 63 57 146 97 65
269 215 219 15 189 191 211 227 169 184 202 230 204 217 206 201 188 182 181 178 176 172 181 188 190 201 206 201 204 191 191 193 192 183 184 193 205 198 192 141 136 121 284 8 71 42 51 151 2
302 303 344 294 221 173 206 243 177 177 156 193 288 205 212 209 189 185 183 177 176 180 192 200 197 207 213 211 203 196 193 193 192 188 197 186 196 198 195 174 162 173 172 81 44 36 45 13 321
288 279 219 245 282 252 334 291 148 162 167 181 204 235 205 211 196 185 185 184 188 192 206 205 203 206 210 203 198 192 191 195 195 198 203 193 204 206 205 207 197 187 192 169 140 132 196 250 187
273 292 307 290 232 246 189 278 211 153 192 195 204 211 212 202 208 200 191 192 197 202 207 205 200 194 194 185 183 186 188 190 194 194 211 215 223 227 229 221 217 209 209 207 167 161 236 247 248
246 254 298 310 311 356 286 292 252 97 207 211 198 210 216 200 197 194 197 193 199 202 204 204 197 188 182 177 186 189 194 199 205 203 206 219 209 219 242 227 224 225 230 225 229 229 222 246 253
287 324 290 319 322 316 268 270 183 206 208 221 215 219 210 194 199 200 197 197 199 204 205 201 197 191 189 184 187 199 198 201 207 213 211 210 216 223 242 234 234 231 227 232 226 231 242 247 241
293 296 320 321 321 230 40 312 213 210 206 202 204 221 208 198 192 199 197 197 196 199 202 201 197 192 194 191 191 200 206 200 208 219 219 211 224 220 241 241 262 240 242 247 235 234 235 246 259
236 183 174 238 264 216 227 239 256 199 208 200 201 213 204 186 191 193 190 197 200 200 203 201 199 196 196 196 197 203 203 200 204 208 210 220 229 230 232 234 246 244 242 239 247 250 253 249 248
252 263 226 241 290 323 251 285 0 98 175 194 182 180 182 187 182 189 194 199 197 202 203 202 202 200 202 202 202 207 205 202 204 206 211 214 222 220 236 246 254 246 231 229 242 256 258 250 243
166 223 346 319 253 270 288 291 208 103 84 65 124 157 167 186 188 189 191 190 195 203 204 204 204 208 204 207 205 209 212 208 209 209 204 208 213 230 240 246 255 254 247 250 245 245 252 253 247
232 232 243 180 170 212 321 293 210 202 215 169 77 183 174 175 179 191 190 190 191 197 198 200 202 206 204 212 207 207 210 212 211 213 212 216 221 230 239 244 254 256 239 251 260 253 243 244 256
233 223 182 160 273 221 182 265 223 87 210 162 150 129 170 173 181 186 194 193 190 192 193 199 203 207 210 213 213 211 212 212 211 214 219 227 232 232 242 240 242 244 255 269 262 254 248 245 248
Wind_Speed_850mb
4 10 11 9 10 5 15 10 20 27 32 58 53 40 23 34 10 8 46 41 35 43 40 35 38 33 31 33 30 30 30 29 28 26 25 24 24 24 23 22 22 23 28 28 29 29 27 25 30
12 16 14 3 8 9 9 19 28 20 41 54 54 49 29 11 14 47 53 39 37 42 42 40 37 34 32 29 27 28 28 28 28 27 26 27 27 27 25 23 26 28 29 31 33 32 29 29 34
11 6 5 7 7 8 8 20 34 23 37 38 36 36 14 13 38 59 49 40 39 44 43 39 36 34 32 30 29 28 27 27 25 23 23 25 27 24 26 25 26 30 33 29 28 26 25 27 34
13 8 10 5 1 7 3 34 30 24 38 45 44 23 22 28 60 62 53 45 43 39 40 39 35 33 32 31 29 27 25 24 23 23 21 22 23 25 25 25 29 29 25 25 24 23 24 26 33
6 9 5 7 12 15 22 36 46 12 12 50 45 21 22 34 57 72 54 47 50 43 38 39 36 32 30 30 29 28 25 24 22 21 21 20 22 22 25 27 27 25 23 22 20 22 21 24 30
7 3 6 9 6 10 19 49 18 12 26 59 50 38 17 46 44 52 54 56 43 45 38 36 33 28 24 23 18 24 24 22 22 21 20 20 22 25 21 25 24 22 22 22 20 21 23 28 26
1 6 9 14 6 3 11 16 29 14 23 27 38 14 27 43 48 47 37 43 34 36 34 33 31 25 23 26 24 25 22 22 26 25 22 22 24 23 21 23 24 20 22 20 19 23 25 25 21
17 10 18 11 6 5 6 14 30 2 5 11 28 16 21 55 56 46 42 48 36 29 22 28 25 24 23 24 24 23 25 20 32 28 26 23 22 20 21 23 21 19 20 19 21 26 28 23 17
13 11 8 8 7 4 8 2 12 18 25 54 26 50 72 52 51 54 52 56 47 38 20 17 19 20 22 24 24 26 24 28 40 34 26 26 22 15 17 21 22 16 17 20 21 18 14 13 16
11 8 11 24 8 4 7 4 2 16 25 50 60 54 56 53 54 49 45 54 44 35 29 19 16 18 19 25 26 26 25 33 38 32 27 32 24 19 13 14 17 15 17 17 14 12 18 8 16
10 9 13 8 15 27 15 24 14 25 7 31 55 64 51 53 45 39 44 42 44 32 38 31 21 20 17 24 24 26 29 41 37 36 25 24 22 18 6 7 16 13 14 6 4 14 6 13 18
12 24 38 7 6 22 6 9 21 8 10 17 68 66 58 57 52 47 47 35 34 34 44 38 34 28 22 16 27 29 37 38 32 37 26 23 20 17 11 10 10 13 8 12 18 10 5 17 35
16 20 40 20 10 26 16 10 22 13 12 34 42 66 64 60 57 53 43 41 40 46 44 29 29 36 32 18 31 29 30 32 28 30 26 22 17 20 15 10 11 7 9 8 8 18 26 12 32
11 26 14 8 3 25 24 18 22 21 23 20 28 66 68 63 56 48 46 37 52 50 45 41 38 42 35 33 33 30 27 25 32 33 30 21 19 7 10 15 10 2 6 17 10 19 13 17 15
12 8 7 5 17 7 13 12 12 27 30 32 45 39 76 67 51 57 52 53 40 45 43 47 44 45 40 40 31 27 44 40 38 39 26 23 21 20 16 16 14 13 12 13 17 13 6 6 18
18 13 12 19 6 9 20 10 13 35 23 20 35 42 65 65 60 46 59 52 42 40 41 41 46 40 38 39 34 29 30 51 50 48 36 33 31 29 21 20 12 11 7 2 8 3 13 15 7
7 6 23 23 22 12 18 9 20 42 30 29 33 27 43 64 60 46 54 58 49 42 35 33 35 30 35 38 47 36 30 36 49 47 39 46 34 35 31 12 10 7 1 10 4 11 7 13 6
11 7 15 13 15 23 18 8 27 51 48 41 40 24 40 50 58 47 56 58 53 44 38 29 30 26 30 36 50 46 44 39 39 44 39 48 34 41 32 8 9 5 4 10 18 13 10 10 23
29 20 9 5 21 16 12 8 32 45 35 25 53 46 42 45 55 56 47 58 54 49 41 34 33 32 36 39 51 53 53 45 42 36 30 31 40 37 31 14 13 6 4 10 8 17 17 6 25
21 16 8 14 11 16 12 19 40 38 18 8 24 60 61 53 61 64 59 60 62 53 44 38 37 38 37 36 48 52 54 49 43 39 32 25 26 29 34 20 16 16 8 7 6 3 8 9 12
20 14 7 17 18 3 9 14 9 29 31 51 62 62 70 68 66 69 70 69 64 61 49 40 37 39 37 38 45 49 38 39 40 41 30 25 21 23 33 32 19 18 17 11 9 8 6 1 7
11 22 19 15 10 7 4 17 9 30 29 35 41 63 69 71 75 75 75 70 73 67 55 41 37 35 34 44 46 57 51 48 43 35 32 29 26 20 25 30 35 23 17 20 10 4 8 12 6
17 16 14 13 12 11 18 3 3 8 18 22 41 56 77 85 79 86 80 75 83 73 64 49 41 39 45 44 46 53 51 45 39 31 30 29 27 13 13 25 30 31 34 26 21 16 12 17 12
12 11 13 14 4 5 21 11 2 11 21 20 37 58 79 83 91 83 83 77 73 74 71 58 47 46 50 51 48 47 49 45 39 36 33 26 26 29 21 19 24 27 26 28 29 25 27 30 22
12 8 7 9 6 12 12 21 19 39 28 33 40 65 63 91 87 86 91 87 69 87 80 65 53 51 54 56 56 54 50 48 40 34 33 31 34 31 29 17 13 26 25 22 25 31 31 29 28
19 16 11 13 5 6 15 16 15 33 41 56 66 78 72 81 92 96 95 94 76 87 85 73 58 52 53 62 62 57 46 56 47 43 36 37 33 36 24 27 23 19 22 17 17 26 33 30 30
18 11 21 10 11 8 10 14 14 6 17 23 43 44 68 75 87 93 91 90 86 86 92 78 62 51 51 54 65 63 49 60 55 48 41 36 46 37 37 32 29 34 26 26 23 21 24 24 29
17 13 7 7 6 13 14 12 8 14 3 13 14 36 43 74 83 84 92 86 94 96 93 80 63 48 48 51 57 62 59 52 58 51 41 47 40 48 48 41 42 48 41 31 30 27 23 23 21
7 10 10 8 8 6 5 12 11 15 16 12 7 23 47 47 54 93 96 92 81 91 93 81 66 52 45 53 54 55 54 53 54 57 56 48 51 49 47 46 47 40 42 33 30 34 25 32 31
15 18 20 10 14 10 11 14 7 15 11 22 14 24 40 40 38 74 87 88 94 94 94 84 70 59 50 48 55 53 51 50 52 54 57 63 56 49 45 45 41 36 32 30 38 42 30 36 43
Wind_Direction_850mb
211 49 25 42 42 13 304 314 108 78 75 81 83 83 83 46 127 193 150 183 157 153 149 143 139 132 128 123 119 116 114 111 111 114 115 116 119 118 117 120 117 114 118 121 117 109 104 104 106
35 32 304 135 83 338 284 249 85 111 113 107 98 96 63 61 92 135 133 160 163 150 149 147 142 139 134 128 129 126 125 121 118 114 110 109 110 115 117 122 124 123 121 117 110 105 99 100 103
47 341 285 110 121 197 253 301 319 86 104 112 100 73 70 108 127 132 140 158 151 151 150 143 141 141 136 132 135 132 135 128 123 117 114 112 112 115 124 125 125 123 119 113 108 101 104 101 104
6 324 259 92 221 209 336 293 297 54 82 100 98 69 86 124 135 140 152 156 147 149 146 143 145 142 141 139 138 140 140 138 136 128 119 116 116 123 128 126 126 123 118 111 105 106 98 100 113
290 297 320 319 177 153 183 262 287 50 317 108 102 103 92 135 145 151 156 161 165 146 148 147 149 150 147 147 151 153 159 158 155 146 133 123 127 130 132 132 128 126 118 109 106 107 104 106 113
277 161 1 315 20 82 274 250 242 96 67 106 100 105 107 144 152 158 160 158 160 159 156 155 155 153 158 158 158 159 166 167 172 168 146 138 136 135 137 136 134 130 118 108 109 106 109 94 105
237 50 344 285 4 168 212 5 346 45 40 102 137 107 137 152 149 154 157 156 159 179 171 164 164 164 159 155 159 160 166 174 173 171 153 148 142 138 134 141 136 134 121 114 103 101 92 95 92
113 97 347 315 269 260 298 73 298 31 47 95 147 139 156 149 152 161 148 166 165 168 163 175 167 167 161 156 162 171 172 180 175 170 158 141 134 129 136 144 142 141 129 115 106 97 90 91 108
82 49 300 267 314 101 273 333 332 20 58 64 78 138 146 151 159 156 163 169 167 168 180 149 167 170 166 167 166 161 165 158 157 163 145 124 120 120 134 146 147 151 133 114 110 102 97 102 47
117 106 261 282 153 141 89 184 236 59 76 91 96 116 142 149 156 161 164 164 169 168 170 180 176 172 163 175 166 161 162 158 160 155 137 139 119 99 105 150 157 163 125 116 118 114 71 7 67
146 172 226 199 134 154 180 181 175 119 41 112 134 140 155 152 164 163 171 180 181 203 175 192 195 164 180 189 186 170 164 166 166 169 152 146 130 133 91 145 157 149 109 124 113 83 108 119 104
92 16 340 58 53 159 80 123 93 105 177 178 153 151 157 166 170 177 179 187 182 168 174 181 181 182 196 177 182 170 167 172 169 170 154 144 135 125 152 132 136 137 57 47 63 47 42 107 68
146 132 221 247 184 131 135 131 129 147 111 146 156 163 166 177 178 181 184 185 186 179 174 181 176 175 188 195 179 171 169 178 173 183 173 146 162 171 198 244 151 62 330 2 17 63 50 100 109
198 186 139 98 233 174 163 155 140 200 192 208 206 172 174 179 181 179 181 192 194 201 192 178 184 180 192 191 184 174 172 173 181 178 158 171 158 186 196 184 185 167 238 299 211 145 45 145 146
300 141 115 242 297 178 177 161 171 185 199 254 182 191 181 176 177 180 182 195 209 196 188 189 193 191 191 187 193 196 196 192 189 183 187 181 225 195 196 174 195 172 227 287 335 56 202 183 319
273 51 31 289 265 258 164 217 181 182 200 218 180 202 179 173 185 175 182 193 203 191 197 203 206 210 199 189 187 183 173 174 189 187 200 198 204 191 169 182 223 186 198 237 3 17 245 261 284
5 171 213 253 214 230 188 201 167 183 200 235 207 204 171 180 186 174 177 186 185 187 179 180 199 206 203 204 198 188 176 182 181 202 196 202 191 187 177 204 195 151 276 331 11 11 132 337 351
200 205 249 193 219 227 212 221 156 184 188 210 231 206 185 179 172 176 183 186 179 182 179 182 199 206 202 207 205 196 186 198 200 198 201 200 193 189 188 184 180 129 330 17 63 57 146 97 65
269 215 219 15 189 191 211 227 169 184 202 230 204 217 206 201 188 182 181 178 176 172 181 188 190 201 206 201 204 191 191 193 192 183 184 193 205 198 192 141 136 121 284 8 71 42 51 151 2
302 303 344 294 221 173 206 243 177 177 156 193 288 205 212 209 189 185 183 177 176 180 192 200 197 207 213 211 203 196 193 193 192 188 197 186 196 198 195 174 162 173 172 81 44 36 45 13 321
288 279 219 245 282 252 334 291 148 162 167 181 204 235 205 211 196 185 185 184 188 192 206 205 203 206 210 203 198 192 191 195 195 198 203 193 204 206 205 207 197 187 192 169 140 132 196 250 187
273 292 307 290 232 246 189 278 211 153 192 195 204 211 212 202 208 200 191 192 197 202 207 205 200 194 194 185 183 186 188 190 194 194 211 215 223 227 229 221 217 209 209 207 167 161 236 247 248
246 254 298 310 311 356 286 292 252 97 207 211 198 210 216 200 197 194 197 193 199 202 204 204 197 188 182 177 186 189 194 199 205 203 206 219 209 219 242 227 224 225 230 225 229 229 222 246 253
287 324 290 319 322 316 268 270 183 206 208 221 215 219 210 194 199 200 197 197 199 204 205 201 197 191 189 184 187 199 198 201 207 213 211 210 216 223 242 234 234 231 227 232 226 231 242 247 241
293 296 320 321 321 230 40 312 213 210 206 202 204 221 208 198 192 199 197 197 196 199 202 201 197 192 194 191 191 200 206 200 208 219 219 211 224 220 241 241 262 240 242 247 235 234 235 246 259
236 183 174 238 264 216 227 239 256 199 208 200 201 213 204 186 191 193 190 197 200 200 203 201 199 196 196 196 197 203 203 200 204 208 210 220 229 230 232 234 246 244 242 239 247 250 253 249 248
252 263 226 241 290 323 251 285 0 98 175 194 182 180 182 187 182 189 194 199 197 202 203 202 202 200 202 202 202 207 205 202 204 206 211 214 222 220 236 246 254 246 231 229 242 256 258 250 243
166 223 346 319 253 270 288 291 208 103 84 65 124 157 167 186 188 189 191 190 195 203 204 204 204 208 204 207 205 209 212 208 209 209 204 208 213 230 240 246 255 254 247 250 245 245 252 253 247
232 232 243 180 170 212 321 293 210 202 215 169 77 183 174 175 179 191 190 190 191 197 198 200 202 206 204 212 207 207 210 212 211 213 212 216 221 230 239 244 254 256 239 251 260 253 243 244 256
233 223 182 160 273 221 182 265 223 87 210 162 150 129 170 173 181 186 194 193 190 192 193 199 203 207 210 213 213 211 212 212 211 214 219 227 232 232 242 240 242 244 255 269 262 254 248 245 248